Вернуться в каталог

STARLINK-11300

АктивенСвязьVLEO
NORAD 61243·PAYLOAD·🇺🇸 United States

Запущен Sep 25, 2024 с Vandenberg Space Force Base

Loading…

Ближайшие Пролёты (ближайшие 24 часа)

TLE

СвежийSource: CelesTrak SupGP

Эпоха: Sep 14, 2026, 22:44 UTC

1 61243C 24175A   26257.94770833  .00024899  00000+0  20489-3 0  2572
2 61243  53.1577 203.3162 0001022  95.9633 179.6621 15.69721442    17

Отслеживайте STARLINK-11300 в реальном времени с AllMySat

Download on the App Store